Date String (YYYY-MM-DD hh:mm:ss) UTC,Instrument flags,Ambient pressure (hPa),Sample flow (lpm),Bypass flow (lpm),Sample temperature (°C),Ambient temperature (°C),ASC tube jacket temperature (°C),LED temperature (°C),Box temperature (°C),Sample RH (%),Span deviation,Mass concentration (μg/m³),Mass concentration (μg/m³),Mass concentration (μg/m³)
DateTimeUTC,F1_M11,P_M11,Q1_M11,Q2_M11,T1_M11,T2_M11,T3_M11,T4_M11,T5_M11,U1_M11,ZSPAN_M11,X0_M11,X2_M11,X1_M11
2023-05-01 09:00:00,,0827.8,5.00,0.00,26.9,25.4,00.0,35.3,28.5,16.2,0000.0,0015.88,0005.13,0003.48
2023-05-01 09:01:00,,0827.6,5.00,0.00,26.9,25.4,00.0,35.3,28.5,16.2,0000.0,0015.42,0005.10,0003.50
2023-05-01 09:02:00,,0827.7,5.00,0.00,26.9,25.4,00.0,35.3,28.5,16.2,0000.0,0015.95,0005.15,0003.52
2023-05-01 09:03:00,,0827.7,5.00,0.00,26.9,25.5,00.0,35.3,28.5,16.2,0000.0,0015.75,0005.13,0003.54
2023-05-01 09:04:00,,0827.7,4.99,0.00,26.9,25.5,00.0,35.3,28.5,16.2,0000.0,0016.02,0005.14,0003.56
2023-05-01 09:05:00,,0827.7,5.00,0.00,26.9,25.5,00.0,35.3,28.5,16.2,0000.0,0016.03,0005.16,0003.59
2023-05-01 09:06:00,,0827.7,5.01,0.00,26.9,25.5,00.0,35.3,28.6,16.2,0000.0,0017.27,0005.20,0003.61
2023-05-01 09:07:00,,0827.8,5.01,0.00,26.9,25.5,00.0,35.3,28.6,16.2,0000.0,0016.74,0005.29,0003.64
2023-05-01 09:08:00,,0827.8,5.00,0.00,27.0,25.5,00.0,35.3,28.6,16.2,0000.0,0015.93,0005.30,0003.66
2023-05-01 09:09:00,,0827.7,4.98,0.00,27.0,25.5,00.0,35.3,28.6,16.2,0000.0,0015.68,0005.29,0003.66
2023-05-01 09:10:00,,0827.7,4.99,0.00,27.0,25.5,00.0,35.3,28.6,16.2,0000.0,0015.94,0005.27,0003.66
2023-05-01 09:11:00,,0827.8,5.01,0.00,27.0,25.5,00.0,35.3,28.6,16.2,0000.0,0015.41,0005.22,0003.67
2023-05-01 09:12:00,,0827.8,5.01,0.00,27.0,25.5,00.0,35.3,28.6,16.3,0000.0,0015.28,0005.25,0003.68
2023-05-01 09:13:00,,0827.8,4.99,0.00,27.0,25.5,00.0,35.3,28.6,16.3,0000.0,0015.26,0005.25,0003.70
2023-05-01 09:14:00,,0827.8,5.00,0.00,27.0,25.5,00.0,35.3,28.6,16.3,0000.0,0015.62,0005.29,0003.72
2023-05-01 09:15:00,,0827.8,5.00,0.00,27.0,25.5,00.0,35.3,28.6,16.2,0000.0,0015.33,0005.32,0003.73
2023-05-01 09:16:00,,0827.7,5.00,0.00,27.0,25.6,00.0,35.3,28.6,16.1,0000.0,0014.64,0005.34,0003.75
2023-05-01 09:17:00,,0827.8,5.00,0.00,27.0,25.6,00.0,35.3,28.6,16.0,0000.0,0013.23,0005.34,0003.77
2023-05-01 09:18:00,,0827.8,5.00,0.00,27.0,25.6,00.0,35.3,28.6,16.1,0000.0,0013.05,0005.25,0003.77
2023-05-01 09:19:00,,0827.8,5.00,0.00,27.0,25.6,00.0,35.3,28.6,16.1,0000.0,0012.90,0005.18,0003.78
2023-05-01 09:20:00,,0827.8,4.99,0.00,27.0,25.6,00.0,35.3,28.6,15.9,0000.0,0013.42,0005.21,0003.81
2023-05-01 09:21:00,,0827.9,5.00,0.00,27.0,25.6,00.0,35.4,28.6,15.7,0000.0,0013.38,0005.27,0003.85
2023-05-01 09:22:00,,0827.8,5.00,0.00,27.0,25.6,00.0,35.4,28.6,15.6,0000.0,0013.67,0005.34,0003.89
2023-05-01 09:23:00,,0827.8,5.01,0.00,27.0,25.6,00.0,35.4,28.6,15.6,0000.0,0013.39,0005.38,0003.94
2023-05-01 09:24:00,,0827.8,5.01,0.00,27.0,25.5,00.0,35.4,28.6,15.6,0000.0,0013.00,0005.45,0003.99
2023-05-01 09:25:00,,0827.9,5.00,0.00,27.0,25.5,00.0,35.4,28.6,15.6,0000.0,0012.44,0005.47,0004.02
2023-05-01 09:26:00,,0827.8,5.00,0.00,27.0,25.5,00.0,35.4,28.6,15.5,0000.0,0012.99,0005.53,0004.04
2023-05-01 09:27:00,,0827.7,5.00,0.00,27.0,25.5,00.0,35.4,28.6,15.6,0000.0,0013.48,0005.61,0004.06
2023-05-01 09:28:00,,0827.7,5.01,0.00,27.0,25.5,00.0,35.4,28.6,15.5,0000.0,0014.24,0005.67,0004.08
2023-05-01 09:29:00,,0827.8,4.99,0.00,27.0,25.5,00.0,35.4,28.5,15.4,0000.0,0014.46,0005.76,0004.10
2023-05-01 09:30:00,,0827.8,5.01,0.00,27.0,25.4,00.0,35.4,28.5,15.3,0000.0,0014.56,0005.84,0004.12
2023-05-01 09:31:00,,0827.8,4.99,0.00,27.0,25.4,00.0,35.4,28.6,15.2,0000.0,0014.70,0005.88,0004.13
2023-05-01 09:32:00,,0827.8,4.99,0.00,27.0,25.4,00.0,35.4,28.5,15.2,0000.0,0014.70,0005.87,0004.14
2023-05-01 09:33:00,,0827.8,5.00,0.00,27.0,25.4,00.0,35.4,28.5,15.2,0000.0,0015.44,0005.83,0004.13
2023-05-01 09:34:00,,0827.9,5.02,0.00,26.9,25.4,00.0,35.3,28.5,15.1,0000.0,0015.95,0005.87,0004.11
2023-05-01 09:35:00,,0827.8,5.00,0.00,26.9,25.4,00.0,35.3,28.5,15.1,0000.0,0016.37,0005.83,0004.09
2023-05-01 09:36:00,,0827.8,5.00,0.00,26.9,25.4,00.0,35.3,28.4,15.0,0000.0,0016.57,0005.80,0004.08
2023-05-01 09:37:00,,0827.7,5.00,0.00,26.9,25.3,00.0,35.3,28.4,15.0,0000.0,0016.35,0005.75,0004.06
2023-05-01 09:38:00,,0827.8,4.99,0.00,26.9,25.3,00.0,35.3,28.4,15.0,0000.0,0016.48,0005.72,0004.04
2023-05-01 09:39:00,,0827.7,5.00,0.00,26.9,25.3,00.0,35.3,28.4,15.0,0000.0,0016.52,0005.68,0004.03
2023-05-01 09:40:00,,0827.8,5.01,0.00,26.9,25.3,00.0,35.3,28.4,15.0,0000.0,0016.60,0005.56,0004.01
2023-05-01 09:41:00,,0827.8,5.01,0.00,26.9,25.3,00.0,35.3,28.4,15.0,0000.0,0017.27,0005.53,0004.00
2023-05-01 09:42:00,,0827.8,5.00,0.00,26.9,25.3,00.0,35.3,28.4,15.0,0000.0,0017.04,0005.58,0003.99
2023-05-01 09:43:00,,0827.9,5.00,0.00,26.9,25.3,00.0,35.3,28.4,15.1,0000.0,0016.99,0005.59,0003.98
2023-05-01 09:44:00,,0827.9,5.00,0.00,26.8,25.3,00.0,35.3,28.4,15.1,0000.0,0016.82,0005.59,0003.97
2023-05-01 09:45:00,,0827.8,5.00,0.00,26.8,25.3,00.0,35.3,28.4,15.1,0000.0,0016.65,0005.56,0003.96
2023-05-01 09:46:00,,0827.8,5.00,0.00,26.8,25.3,00.0,35.3,28.4,15.2,0000.0,0015.98,0005.53,0003.95
2023-05-01 09:47:00,,0827.9,4.99,0.00,26.8,25.3,00.0,35.3,28.4,15.1,0000.0,0017.31,0005.57,0003.96
2023-05-01 09:48:00,,0827.9,5.00,0.00,26.8,25.3,00.0,35.3,28.3,15.2,0000.0,0017.54,0005.61,0003.97
2023-05-01 09:49:00,,0827.8,5.00,0.00,26.8,25.3,00.0,35.2,28.3,15.2,0000.0,0017.75,0005.62,0003.97
2023-05-01 09:50:00,,0827.8,5.00,0.00,26.8,25.2,00.0,35.2,28.4,15.1,0000.0,0017.82,0005.64,0003.97
2023-05-01 09:51:00,,0827.8,5.00,0.00,26.8,25.2,00.0,35.2,28.4,15.2,0000.0,0018.12,0005.67,0003.97
2023-05-01 09:52:00,,0827.8,5.00,0.00,26.8,25.2,00.0,35.2,28.3,15.1,0000.0,0018.02,0005.72,0003.98
2023-05-01 09:53:00,,0827.8,5.00,0.00,26.8,25.2,00.0,35.2,28.3,15.1,0000.0,0018.36,0005.65,0003.95
2023-05-01 09:54:00,,0827.8,5.01,0.00,26.8,25.1,00.0,35.2,28.3,15.2,0000.0,0018.42,0005.69,0003.94
2023-05-01 09:55:00,,0827.8,5.00,0.00,26.8,25.1,00.0,35.2,28.3,15.2,0000.0,0017.99,0005.70,0003.92
2023-05-01 09:56:00,,0827.8,4.99,0.00,26.8,25.1,00.0,35.2,28.3,15.1,0000.0,0018.43,0005.64,0003.92
2023-05-01 09:57:00,,0827.8,4.99,0.00,26.7,25.1,00.0,35.2,28.3,15.2,0000.0,0018.50,0005.56,0003.91
2023-05-01 09:58:00,,0827.9,5.03,0.00,26.7,25.1,00.0,35.2,28.3,15.2,0000.0,0017.07,0005.50,0003.89
2023-05-01 09:59:00,,0828.0,4.99,0.00,26.7,25.1,00.0,35.2,28.3,15.2,0000.0,0016.66,0005.45,0003.87
